This is the latest recevied weather packets stored in our database for station/object S51UL-6. If no packets are shown the sender has not sent any weather packets the latest 10 day(s).
| Time | Temp. | Humidity | Pressure | Rain* | Wind** | Luminosity | Snow |
|---|---|---|---|---|---|---|---|
| 1788051435 | 12.22° C | 86% | 1018.1 hPa | 0 mm | - | - | - |
| 1788051137 | 12.78° C | 86% | 1017.9 hPa | 0 mm | - | - | - |
| 1788050836 | 12.78° C | 86% | 1018.3 hPa | 0 mm | - | - | - |
| 1788050536 | 12.78° C | 86% | 1018.3 hPa | 0 mm | - | - | - |
| 1788049636 | 12.78° C | 86% | 1018 hPa | 0.51 mm | - | - | - |
| 1788049336 | 12.78° C | 85% | 1018.1 hPa | 0.51 mm | - | - | - |
| 1788049038 | 12.78° C | 85% | 1018.1 hPa | 0.51 mm | - | - | - |
| 1788048436 | 12.78° C | 85% | 1018.1 hPa | 0.51 mm | - | - | - |
| 1788047537 | 12.78° C | 85% | 1018.3 hPa | 1.02 mm | - | - | - |
| 1788047238 | 12.78° C | 85% | 1018.3 hPa | 3.05 mm | - | - | - |
| 1788046936 | 12.78° C | 85% | 1018.3 hPa | 4.06 mm | - | - | - |
| 1788046637 | 13.33° C | 85% | 1018.5 hPa | 5.08 mm | - | - | - |
| 1788046037 | 13.33° C | 85% | 1018.2 hPa | 8.89 mm | - | - | - |
| 1788045436 | 13.33° C | 85% | 1018.1 hPa | 10.41 mm | - | - | - |
| 1788045136 | 13.33° C | 85% | 1018.3 hPa | 11.43 mm | - | - | - |
| 1788044838 | 13.33° C | 84% | 1018.1 hPa | 13.46 mm | - | - | - |
| 1788044239 | 13.33° C | 84% | 1018.3 hPa | 17.53 mm | - | - | - |
| 1788043938 | 13.33° C | 84% | 1018.4 hPa | 17.53 mm | - | - | - |
| 1788043337 | 13.89° C | 84% | 1018.3 hPa | 14.99 mm | - | - | - |
| 1788043038 | 13.89° C | 84% | 1018.3 hPa | 16 mm | - | - | - |
| 1788042737 | 13.89° C | 84% | 1018.1 hPa | 14.99 mm | - | - | - |
| 1788042438 | 13.89° C | 84% | 1018.3 hPa | 15.49 mm | - | - | - |
| 1788042137 | 13.89° C | 83% | 1018.2 hPa | 15.49 mm | - | - | - |
| 1788041538 | 13.89° C | 83% | 1018.3 hPa | 15.49 mm | - | - | - |
| 1788041237 | 13.89° C | 83% | 1018.1 hPa | 12.95 mm | - | - | - |
* Rain latest hour (hover to see other rain measurements)
** Current wind speed in m/s (hover to see current wind gust speed)